FW6266 Weather Reports


Display with metric or nautical units.
time (UTC)temp
F
wind
direction
speed
MPH
gust
MPH
rain 1hr
in
rain 24hr
in
rain mn
in
humidity
%
barometer
mb
20260505101558 41 0 0.0 0.0 0.00 0.00 0.00 85 1017.0
20260505100101 41 0 0.0 0.0 0.00 0.00 0.00 85 1016.9
20260505094558 42 0 0.0 0.0 0.00 0.00 0.00 85 1016.8
20260505093058 42 0 0.0 0.0 0.00 0.00 0.00 84 1016.7
20260505091600 43 0 0.0 0.0 0.00 0.00 0.00 84 1016.7
20260505090106 43 0 0.0 0.0 0.00 0.00 0.00 84 1016.7
20260505084557 44 0 0.0 0.0 0.00 0.00 0.00 84 1016.6
20260505083102 44 0 0.0 1.0 0.00 0.00 0.00 84 1016.7
20260505081602 44 317 0.0 2.0 0.00 0.00 0.00 84 1016.6
20260505080057 44 317 0.0 1.0 0.00 0.00 0.00 84 1016.6
20260505074555 44 0 0.0 2.0 0.00 0.00 0.00 83 1016.5
20260505073057 44 0 0.0 2.0 0.00 0.00 0.00 83 1016.6
20260505071555 45 0 0.0 3.0 0.00 0.00 0.00 83 1016.7
20260505070055 45 323 0.0 3.0 0.00 0.00 0.00 82 1016.7
20260505064551 45 0 0.0 1.0 0.00 0.00 0.00 82 1017.0
20260505063053 46 0 0.0 3.0 0.00 0.00 0.00 81 1017.1
20260505061555 46 284 0.0 3.0 0.00 0.00 0.00 81 1017.3
20260505060055 46 288 2.0 3.0 0.00 0.00 0.00 81 1017.1
20260505054553 46 265 2.0 7.0 0.00 0.00 0.00 81 1017.1
20260505053107 46 257 0.0 3.0 0.00 0.00 0.00 82 1017.1
20260505051555 46 244 1.0 5.0 0.00 0.00 0.00 81 1017.2
20260505041551 48 0 0.0 0.0 0.00 0.00 0.00 78 1017.3
20260505040056 48 0 0.0 3.0 0.00 0.00 0.00 78 1017.4
20260505034555 49 0 0.0 2.0 0.00 0.00 0.00 77 1017.5
20260505033111 49 0 0.0 0.0 0.00 0.00 0.00 76 1017.7
20260505031553 50 0 0.0 2.0 0.00 0.00 0.00 75 1017.8
20260505030055 51 0 0.0 2.0 0.00 0.00 0.00 74 1017.8
20260505024601 52 0 0.0 0.0 0.00 0.00 0.00 72 1017.6
20260505023105 52 0 0.0 2.0 0.00 0.00 0.00 71 1017.6
20260505021555 53 0 0.0 2.0 0.00 0.00 0.00 70 1017.5
20260505020055 54 0 0.0 2.0 0.00 0.00 0.00 67 1017.4
20260505014554 55 0 0.0 2.0 0.00 0.00 0.00 66 1017.3
20260505013109 56 263 0.0 3.0 0.00 0.00 0.00 64 1017.2
20260505011603 57 261 0.0 4.0 0.00 0.00 0.00 62 1017.0
20260505010106 59 273 1.0 3.0 0.00 0.00 0.00 60 1017.0
20260505004603 60 0 2.0 6.0 0.00 0.00 0.00 57 1016.9
20260505003104 61 275 1.0 6.0 0.00 0.00 0.00 55 1016.8
20260505001606 62 286 2.0 7.0 0.00 0.00 0.00 52 1016.8
20260504234624 65 0 0.0 4.0 0.00 0.00 0.00 47 1016.6
20260504233103 65 246 1.0 7.0 0.00 0.00 0.00 45 1016.4
20260504231607 67 247 2.0 10.0 0.00 0.00 0.00 44 1016.5
20260504230100 67 275 1.0 10.0 0.00 0.00 0.00 43 1016.3
20260504224606 67 248 3.0 9.0 0.00 0.00 0.00 43 1016.3
20260504223102 68 0 4.0 10.0 0.00 0.00 0.00 44 1016.4
20260504221601 68 123 2.0 15.0 0.00 0.00 0.00 43 1016.3
20260504220057 69 283 1.0 13.0 0.00 0.00 0.00 42 1016.4
20260504214555 69 336 1.0 9.0 0.00 0.00 0.00 43 1016.3
20260504213100 69 159 3.0 11.0 0.00 0.00 0.00 42 1016.3
20260504211554 69 217 2.0 9.0 0.00 0.00 0.00 40 1016.2
20260504204635 70 0 2.0 10.0 0.00 0.00 0.00 39 1016.4
20260504203057 69 223 2.0 13.0 0.00 0.00 0.00 40 1016.3
20260504201556 69 105 2.0 15.0 0.00 0.00 0.00 43 1016.4
20260504200059 69 32 2.0 9.0 0.00 0.00 0.00 41 1016.4
20260504194557 69 198 2.0 12.0 0.00 0.00 0.00 39 1016.7
20260504193053 69 179 1.0 11.0 0.00 0.00 0.00 37 1016.9
20260504191554 69 176 3.0 16.0 0.00 0.00 0.00 36 1017.2
20260504190101 69 124 2.0 10.0 0.00 0.00 0.00 34 1017.2
20260504184604 69 180 2.0 8.0 0.00 0.00 0.00 31 1017.3
20260504183101 69 0 4.0 17.0 0.00 0.00 0.00 33 1017.5
20260504181555 69 243 3.0 11.0 0.00 0.00 0.00 32 1017.5
20260504180055 69 91 3.0 10.0 0.00 0.00 0.00 35 1017.4
20260504174556 68 123 2.0 6.0 0.00 0.00 0.00 36 1017.5
20260504173056 68 306 1.0 10.0 0.00 0.00 0.00 38 1017.6
20260504171557 68 244 2.0 9.0 0.00 0.00 0.00 39 1017.7